This demonstration page uses our WeatherBlox Daily Observations layout. Learn more.

Left ArrowRight Arrow

39.29038, -76.61219

Hourly Observations for July 19, 2020

Temp ( °F °C ) Dew Point ( °F °C ) Humidity (%) Winds ( mph kmh ) Pressure ( in mb ) Visibility ( mi km ) Precip ( " mm )
12:54 am 00:54 Mostly Cloudy 76 24.4 66 18.9 72 72 W 3 6 30.00 1016 10 16 0.00 0.00
1:54 am 01:54 Partly Cloudy 73 22.8 66 18.9 79 79 Calm 29.98 1015 10 16 0.00 0.00
2:54 am 02:54 Mostly Clear 71 21.7 66 18.9 84 84 Calm 29.98 1015 10 16 0.00 0.00
3:54 am 03:54 Mostly Clear 71 21.7 66 18.9 84 84 WSW 3 6 29.97 1015 10 16 0.00 0.00
4:54 am 04:54 Mostly Clear 72 22.2 66 18.9 82 82 W 3 6 29.97 1015 10 16 0.00 0.00
5:54 am 05:54 Partly Cloudy 71 21.7 66 18.9 84 84 Calm 29.97 1015 10 16 0.00 0.00
6:54 am 06:54 Partly Cloudy 73 22.8 68 20 84 84 Calm 29.98 1015 10 16 0.00 0.00
7:54 am 07:54 Partly Cloudy 79 26.1 69 20.6 72 72 Calm 29.98 1015 10 16 0.00 0.00
8:54 am 08:54 Mostly Sunny 85 29.4 72 22.2 65 65 Calm 29.97 1015 10 16 0.00 0.00
9:54 am 09:54 Mostly Sunny 90 32.2 74 23.3 59 59 SSW 5 7 29.96 1015 10 16 0.00 0.00
10:54 am 10:54 Mostly Sunny 94 34.4 73 22.8 51 51 S 6 9 29.95 1014 10 16 0.00 0.00
11:54 am 11:54 Mostly Sunny 96 35.6 68 20 40 40 VRB 6 9 29.94 1014 10 16 0.00 0.00
12:54 pm 12:54 Partly Cloudy 99 37.2 64 17.8 32 32 SSE 9 15 29.92 1013 10 16 0.00 0.00
1:54 pm 13:54 Partly Cloudy 96 35.6 67 19.4 39 39 VRB 5 7 29.91 1013 10 16 0.00 0.00
2:54 pm 14:54 Mostly Cloudy 92 33.3 71 21.7 51 51 S 9 15 29.91 1013 10 16 0.00 0.00
3:54 pm 15:54 Partly Cloudy 96 35.6 72 22.2 46 46 SSE 7 11 29.88 1012 10 16 0.00 0.00
4:54 pm 16:54 Partly Cloudy 96 35.6 73 22.8 47 47 SSE 8 13 29.87 1012 10 16 0.00 0.00
5:54 pm 17:54 Partly Cloudy 97 36.1 73 22.8 46 46 WSW 8 13 29.87 1011 10 16 0.00 0.00
6:54 pm 18:54 Mostly Sunny 95 35 74 23.3 51 51 SSE 7 11 29.86 1011 10 16 0.00 0.00
7:54 pm 19:54 Mostly Sunny 91 32.8 76 24.4 61 61 SSE 7 11 29.85 1011 10 16 0.00 0.00
8:54 pm 20:54 Mostly Clear 88 31.1 77 25 70 70 S 5 7 29.87 1011 10 16 0.00 0.00
9:54 pm 21:54 Partly Cloudy 88 31.1 76 24.4 68 68 S 5 7 29.89 1012 10 16 0.00 0.00
10:54 pm 22:54 Mostly Clear 86 30 74 23.3 67 67 SSW 6 9 29.88 1012 10 16 0.00 0.00
11:54 pm 23:54 Mostly Clear 85 29.4 75 23.9 72 72 SSW 3 6 29.86 1011 10 16 0.00 0.00

Powered by AerisWeather